Location: Budapest
(47.5000°N, 19.0830°E)
Time: 18:48:45
(UTC+01:00)

N. Korean satellite - Visible Passes

Search period start: 19 January 2022 00:00
Search period end: 29 January 2022 00:00
Orbit: 446 x 491 km, 97.3° (Epoch: 18 January)

Date Brightness Start Highest point End Pass type
(mag) Time Alt. Az. Time Alt. Az. Time Alt. Az.
19 Jan 9.9 03:59:00 10° NE 03:59:12 11° ENE 03:59:12 11° ENE visible
19 Jan 7.5 05:30:57 10° N 05:33:16 33° NNW 05:33:16 33° NNW visible
20 Jan 7.5 05:01:44 10° NNE 05:04:11 41° NNE 05:04:11 41° NNE visible
20 Jan 8.6 06:37:50 10° WNW 06:37:56 10° WNW 06:38:03 10° WNW visible
20 Jan 9.8 17:13:27 10° WSW 17:15:15 14° W 17:17:05 10° WNW visible
21 Jan 8.5 04:32:50 10° NNE 04:35:05 28° ENE 04:35:05 28° ENE visible
21 Jan 7.9 06:06:28 10° NNW 06:09:07 19° WNW 06:09:10 19° WNW visible
22 Jan 9.6 04:04:27 10° NE 04:06:00 15° ENE 04:06:00 15° ENE visible
22 Jan 7.0 05:36:45 10° N 05:40:04 38° WNW 05:40:04 38° WNW visible
23 Jan 6.5 05:07:26 10° NNE 05:10:57 83° N 05:10:57 83° N visible
23 Jan 10.0 17:19:38 10° WSW 17:20:58 12° W 17:22:20 10° WNW visible
24 Jan 7.9 04:38:24 10° NNE 04:41:51 40° E 04:41:51 40° E visible
24 Jan 8.1 06:12:17 10° NNW 06:14:43 17° WNW 06:15:55 15° W visible
25 Jan 9.2 04:09:49 10° NE 04:12:29 19° E 04:12:45 19° E visible
25 Jan 7.2 05:42:24 10° N 05:45:43 33° WNW 05:46:48 27° WSW visible
26 Jan 6.4 05:12:57 10° N 05:16:36 75° WNW 05:17:42 42° SSW visible
26 Jan 10.3 17:26:00 10° W 17:26:31 10° W 17:27:03 10° W visible
27 Jan 7.5 04:43:48 10° NNE 04:47:21 47° E 04:48:36 32° SSE visible
27 Jan 8.2 06:17:58 10° NNW 06:20:07 15° WNW 06:22:17 10° W visible
28 Jan 9.0 04:15:04 10° NE 04:17:57 22° E 04:19:30 17° SE visible
28 Jan 7.4 05:47:54 10° N 05:51:06 29° WNW 05:53:34 14° WSW visible
